TimeWET,TemperatureF,Dew PointF,Humidity,Sea Level PressureIn,VisibilityMPH,Wind Direction,Wind SpeedMPH,Gust SpeedMPH,PrecipitationIn,Events,Conditions,WindDirDegrees,DateUTC
12:00 AM,59,56,87,30.09,4,ENE,4.6,,,,Mostly Cloudy,70,2011-11-15 00:00:00
12:00 AM,59.0,55.4,88,30.09,4.3,ENE,4.6,-,N/A,,Scattered Clouds,70,2011-11-15 00:00:00
2:00 AM,59.0,53.6,82,30.09,5.6,Variable,2.3,-,N/A,,Scattered Clouds,0,2011-11-15 02:00:00
2:30 AM,59.0,53.6,82,30.09,4.3,North,8.1,-,N/A,,Scattered Clouds,350,2011-11-15 02:30:00
3:00 AM,57,53,82,30.08,6,NNW,6.9,,,,Mostly Cloudy,340,2011-11-15 03:00:00
3:00 AM,57.2,53.6,88,30.09,5.6,NNW,6.9,-,N/A,,Scattered Clouds,340,2011-11-15 03:00:00
3:30 AM,57.2,53.6,88,30.09,5.0,North,5.8,-,N/A,,Scattered Clouds,350,2011-11-15 03:30:00
4:00 AM,57.2,53.6,88,30.09,5.6,NW,4.6,-,N/A,,Scattered Clouds,310,2011-11-15 04:00:00
4:30 AM,57.2,53.6,88,30.09,5.6,West,5.8,-,N/A,,Scattered Clouds,270,2011-11-15 04:30:00
5:00 AM,57.2,51.8,82,30.09,5.6,Variable,2.3,-,N/A,,Scattered Clouds,0,2011-11-15 05:00:00
5:30 AM,59.0,51.8,77,30.09,5.6,Variable,2.3,-,N/A,,Scattered Clouds,0,2011-11-15 05:30:00
6:00 AM,58,54,82,30.09,6,West,3.5,,,,Mostly Cloudy,260,2011-11-15 06:00:00
6:00 AM,57.2,53.6,88,30.09,5.6,West,2.3,-,N/A,,Scattered Clouds,270,2011-11-15 06:00:00
6:30 AM,57.2,53.6,88,30.09,5.6,SW,3.5,-,N/A,,Scattered Clouds,230,2011-11-15 06:30:00
7:00 AM,59.0,53.6,82,30.09,5.6,Variable,2.3,-,N/A,,Mostly Cloudy,0,2011-11-15 07:00:00
7:30 AM,59.0,53.6,82,30.09,5.6,ENE,2.3,-,N/A,,Mostly Cloudy,70,2011-11-15 07:30:00
8:00 AM,59.0,53.6,82,30.09,5.6,East,3.5,-,N/A,,Mostly Cloudy,90,2011-11-15 08:00:00
8:30 AM,60.8,51.8,72,30.09,5.0,East,5.8,-,N/A,,Mostly Cloudy,90,2011-11-15 08:30:00
9:00 AM,61,53,67,30.09,6,East,5.8,,,,Mostly Cloudy,100,2011-11-15 09:00:00
9:00 AM,60.8,53.6,77,30.12,5.6,East,5.8,-,N/A,,Mostly Cloudy,100,2011-11-15 09:00:00
9:30 AM,60.8,53.6,77,30.12,5.6,East,4.6,-,N/A,,Mostly Cloudy,90,2011-11-15 09:30:00
10:00 AM,62.6,53.6,72,30.12,5.6,ENE,4.6,-,N/A,,Mostly Cloudy,60,2011-11-15 10:00:00
10:30 AM,64.4,51.8,64,30.12,5.0,ENE,4.6,-,N/A,,Mostly Cloudy,70,2011-11-15 10:30:00
11:00 AM,68.0,51.8,56,30.12,5.0,NE,5.8,-,N/A,,Mostly Cloudy,50,2011-11-15 11:00:00
11:30 AM,66.2,51.8,60,30.12,5.6,Variable,3.5,-,N/A,,Mostly Cloudy,0,2011-11-15 11:30:00
12:00 PM,69,51,43,30.06,6,ENE,5.8,,,,Mostly Cloudy,60,2011-11-15 12:00:00
12:00 PM,68.0,51.8,56,30.09,5.6,Variable,4.6,-,N/A,,Mostly Cloudy,0,2011-11-15 12:00:00
1:00 PM,71.6,51.8,50,30.06,6.2,Variable,2.3,-,N/A,,Mostly Cloudy,0,2011-11-15 13:00:00
1:30 PM,69.8,50.0,49,30.06,5.6,Variable,4.6,-,N/A,,Unknown,0,2011-11-15 13:30:00
2:00 PM,68.0,50.0,52,30.06,5.6,NNE,5.8,-,N/A,,Mostly Cloudy,30,2011-11-15 14:00:00
2:30 PM,71.6,48.2,43,30.04,5.6,NNE,4.6,-,N/A,,Mostly Cloudy,30,2011-11-15 14:30:00
3:00 PM,71,47,31,29.99,6,NNE,5.8,,,,Mostly Cloudy,30,2011-11-15 15:00:00
3:00 PM,71.6,48.2,43,30.04,5.6,North,4.6,-,N/A,,Mostly Cloudy,10,2011-11-15 15:00:00
3:30 PM,71.6,46.4,41,30.04,5.6,North,4.6,-,N/A,,Mostly Cloudy,10,2011-11-15 15:30:00
4:00 PM,71.6,46.4,41,30.04,5.6,NNE,5.8,-,N/A,,Mostly Cloudy,20,2011-11-15 16:00:00
4:30 PM,71.6,46.4,41,30.06,5.6,North,5.8,-,N/A,,Mostly Cloudy,350,2011-11-15 16:30:00
5:00 PM,69.8,46.4,43,30.06,5.6,Variable,2.3,-,N/A,,Mostly Cloudy,0,2011-11-15 17:00:00
5:30 PM,68.0,46.4,46,30.06,5.6,ENE,3.5,-,N/A,,Mostly Cloudy,70,2011-11-15 17:30:00
6:00 PM,65,45,38,30.02,5,North,4.6,,,,Partly Cloudy,10,2011-11-15 18:00:00
6:00 PM,64.4,46.4,52,30.06,5.0,NNE,3.5,-,N/A,,Scattered Clouds,20,2011-11-15 18:00:00
6:30 PM,66.2,44.6,46,30.06,5.6,North,5.8,-,N/A,,Scattered Clouds,10,2011-11-15 18:30:00
7:00 PM,64.4,44.6,49,30.06,5.0,NNE,6.9,-,N/A,,Scattered Clouds,30,2011-11-15 19:00:00
7:30 PM,62.6,44.6,52,30.06,5.6,NE,5.8,-,N/A,,Scattered Clouds,40,2011-11-15 19:30:00
8:00 PM,62.6,46.4,55,30.06,5.0,NE,6.9,-,N/A,,Scattered Clouds,40,2011-11-15 20:00:00
8:30 PM,62.6,44.6,52,30.06,6.2,ENE,8.1,-,N/A,,Partly Cloudy,60,2011-11-15 20:30:00
9:00 PM,59,46,51,30.06,6,ENE,5.8,,,,Scattered Clouds,70,2011-11-15 21:00:00
9:00 PM,59.0,46.4,63,30.06,5.6,ENE,5.8,-,N/A,,Partly Cloudy,70,2011-11-15 21:00:00
9:30 PM,59.0,46.4,63,30.06,5.6,East,6.9,-,N/A,,Partly Cloudy,100,2011-11-15 21:30:00
10:00 PM,57.2,46.4,67,30.06,5.6,East,5.8,-,N/A,,Partly Cloudy,100,2011-11-15 22:00:00
10:30 PM,57.2,48.2,72,30.06,5.6,ENE,4.6,-,N/A,,Partly Cloudy,70,2011-11-15 22:30:00
11:00 PM,55.4,48.2,77,30.09,5.0,NE,4.6,-,N/A,,Unknown,40,2011-11-15 23:00:00
11:30 PM,57.2,50.0,77,30.09,5.6,NE,6.9,-,N/A,,Unknown,50,2011-11-15 23:30:00